sat.trackr.live / text

‹ back to catalog

IRIDE-MS2-HEO-14

NORAD 68986 · 2026-100G

PAYLOAD ACTIVE UNKNOWN

§ Identity

Operator
Country
IT
Launch date
2026-05-03
Launch site
AFWTR
Launch vehicle
Mass (kg)
RCS (m²)

External: N2YO · Heavens-Above · Gunter

§ Orbital elements

Epoch: 2026-05-25T03:11:04.898112Z

Period
96.53 min
Inclination
97.7387°
Eccentricity
0.0001743
Mean motion
14.91755048 rev/d
Perigee alt
591.2 km
Apogee alt
593.7 km
Semi-major
6,970.6 km
B*
1.4292e-4
RAAN
43.0192°
Arg perigee
143.4784°
Mean anomaly
216.6554°
Rev number
326

§ Raw data

IRIDE-MS2-HEO-141 68986U 26100G   26145.13269558  .00001384  00000+0  14292-3 0  99992 68986  97.7387  43.0192 0001743 143.4784 216.6554 14.91755048  3269

JSON: /api/v1/satellites/68986 · /tle

For live sub-satellite position, see the globe view (requires WebGL).

§ Visibility from observer

Set your observer location to see the next 7 days of passes ≥ 10°. The values pass through the URL so the page stays shareable.

No JS? Fill the form by hand. The geolocation button needs JavaScript.